Location: Haieshausen
(51.8387°N, 9.9720°E)
Time: 04:00:15
(UTC+00:00)

SL-16 R/B - Pass Details

Date: 14 July 2020
Orbit: 842 x 846 km, 71.0° (Epoch: 10 August)

Event Time Altitude Azimuth Distance (km) Brightness Sun altitude
Rises 02:01:19 0° 330° (NNW) 3,419 5.7 -9.1°
Reaches altitude 10° 02:03:50 10° 335° (NNW) 2,480 5.0 -8.8°
Maximum altitude 02:09:25 53° 52° (NE) 1,034 3.2 -8.3°
Drops below altitude 10° 02:14:57 10° 130° (SE) 2,466 4.6 -7.8°
Sets 02:17:27 0° 135° (SE) 3,398 5.3 -7.5°
